www.pogodaiklimat.ru

Погода и климат >> Архив погоды >> Малайзия >> Кота-Кинабалу


ПОГОДА в Кота-Кинабалу

  • Прогноз погоды в Кота-Кинабалу
  • Монитор погоды в Кота-Кинабалу

АРХИВ ПОГОДЫ в Кота-Кинабалу

Время (UTC), дата Ветер
(напр.,м/с)
 
Видим.   Явления Облачность Т
(С)
Тd
(С)
f
(%)
Тe
(С)
Тes
(С)
Комфортность P
(гПа)
Po
(гПа)
Тmin
(С)
Tmax
(С)
R
(мм)
R24
(мм)
S
(см)
09 12.06 СЗ 2 25 км 9/1 420 м
[Cu Sc Ac lent Cs]
+32.7 +25.7 67 +48 +49 опасность
перегрева
1007.3 1007.0
12 12.06 штиль 0 18 км 9/3 420 м
[Cu Sc Ac lent Cs]
+30.2 +25.1 74 +44 +44 опасность
перегрева
1008.9 1008.6 +33.4
15 12.06 В 3 18 км 9/1 420 м
[Cu Sc Ac lent Cs]
+28.2 +25.3 84 +41 +41 опасность
перегрева
1010.1 1009.8
18 12.06 ЮВ 3 18 км 9/3 420 м
[Cu Sc Ac lent Cs]
+27.2 +24.6 86 +39 +39 очень
душно
1008.7 1008.4
21 12.06 В 1 18 км 9/3 420 м
[Cu Sc Ac lent Cs]
+27.0 +24.8 88 +39 +39 очень
душно
1008.8 1008.5
00 13.06 штиль 0 24 км {дождь} 9/4 480 м
[Cb cap Ac lent Cs]
+29.6 +26.3 82 +45 +47 опасность
перегрева
1010.8 1010.5 +27.0 0.6
03 13.06 З 3 25 км 9/3 420 м
[Cu Sc Ac trans Ci sp]
+31.3 +26.3 75 +47 +53 опасность
перегрева
1010.5 1010.2
06 13.06 З 5 4000 м гроза, ливневой дождь 9/5 400 м
[Cb cap Ac lent Cs]
+28.8 +26.8 89 +45 +47 опасность
перегрева
1008.7 1008.4 2
09 13.06 ЮВ 5 1500 м гроза, ливневой дождь 10/6 400 м
[Cb cap Ac lent Cs]
+25.9 +25.3 96 +37 +38 очень
душно
1008.2 1007.9
12 13.06 ЮЗ 3 8000 м гроза, ливневой дождь 10/5 1500 м
[Cb cap Ac lent Cs]
+25.6 +25.0 96 +36 +36 очень
душно
1010.4 1010.1 +25.6 72
15 13.06 Ю 3 18 км зарница {гроза, дождь} 9/4 420 м
[Cb cap Ac lent Cs]
+25.5 +24.6 95 +36 +36 очень
душно
1011.4 1011.1
18 13.06 Ю 6 18 км зарница {гроза, дождь} 9/5 420 м
[Cb cap Ac lent Cs]
+26.0 +24.6 92 +37 +37 очень
душно
1010.4 1010.1 0.4
21 13.06 ЮВ 2 10 км слаб. дождь 10/6 400 м
[Cu Sc Ac lent Cs]
+24.9 +24.2 96 +34 +34 очень
душно
1009.5 1009.2
00 14.06 ЮЗ 2 28 км {дождь} 9/3 50 м
[Cu Sc Ac lent Cs]
+27.7 +24.7 84 +39 +41 очень
душно
1010.4 1010.1 +24.8 78
03 14.06 ЮЗ 4 26 км 9/3 450 м
[Cb cap Ac lent Cs]
+30.9 +25.1 71 +44 +50 опасность
перегрева
1011.2 1010.9
06 14.06 З 3 24 км 9/3 450 м
[Cu Sc Ac lent Cs]
+31.3 +26.0 74 +47 +53 опасность
перегрева
1008.5 1008.2
09 14.06 ЮЗ 2 24 км 9/4 450 м
[Cb cap Ac lent Cs]
+30.8 +25.9 75 +46 +47 опасность
перегрева
1007.6 1007.3
12 14.06 З 2 18 км 9/3 450 м
[Cu Sc Ac lent Cs]
+29.5 +26.1 82 +45 +45 опасность
перегрева
1008.9 1008.6 +29.8
15 14.06 ЮВ 2 18 км 9/3 450 м
[Cu Sc Ac lent Cs]
+28.2 +25.3 84 +41 +41 опасность
перегрева
1011.3 1011.0
18 14.06 В 3 18 км 9/3 420 м
[Cu Sc Ac lent Cs]
+27.0 +25.1 89 +39 +39 очень
душно
1009.6 1009.3
21 14.06 В 2 18 км 9/1 420 м
[Cu Sc Ac lent Cs]
+26.1 +24.4 90 +36 +36 очень
душно
1009.3 1009.0
00 15.06 В 4 25 км осадки на расстоянии 9/5 420 м
[Cb cap Ac lent Cs]
+27.6 +25.0 86 +40 +41 очень
душно
1010.2 1009.9 +26.6
03 15.06 ЮЗ 3 25 км 9/1 420 м
[Cu Sc Ac lent Cs]
+31.4 +25.4 71 +46 +54 опасность
перегрева
1009.0 1008.7
06 15.06 З 3 25 км 9/1 420 м
[Cu Sc Ac lent Cs]
+32.1 +26.7 73 +49 +56 опасность
перегрева
1007.3 1007.0
09 15.06 З 2 22 км 9/3 420 м
[Cb cap Ac lent Cs]
+30.5 +25.8 76 +45 +46 опасность
перегрева
1006.7 1006.4
12 15.06 штиль 0 18 км зарница 9/3 420 м
[Cb cap Ac lent Cs]
+29.4 +25.9 81 +44 +44 опасность
перегрева
1009.4 1009.1 +29.8
15 15.06 В 2 18 км 9/1 420 м
[Cu Sc Ac lent Cs]
+27.7 +25.3 87 +40 +40 очень
душно
1010.8 1010.5
18 15.06 В 3 18 км 9/1 450 м
[Cu Sc Ac lent Cs]
+26.8 +24.0 85 +37 +37 очень
душно
1009.6 1009.3
21 15.06 В 3 18 км 9/3 450 м
[Cu Sc Ac lent Cs]
+26.1 +22.9 83 +35 +35 очень
душно
1009.0 1008.7
00 16.06 В 3 26 км 9/4 450 м
[Cb cap Ac lent Cs]
+29.1 +23.6 72 +40 +41 очень
душно
1010.9 1010.6 +26.7
03 16.06 З 3 4000 м гроза, ливневой дождь 10/8 400 м
[Cb cap Ac und Cs]
+25.8 +23.7 88 +35 +37 очень
душно
1013.2 1012.9
06 16.06 Ю 3 25 км в посл. час дождь {гроза} 9/3 420 м
[Cu Sc Ac lent Cs]
+29.2 +23.1 70 +39 +45 очень
душно
1009.6 1009.3 13
09 16.06 З 2 25 км 9/3 420 м
[Cu Sc Ac lent Cs]
+30.2 +24.5 72 +43 +44 опасность
перегрева
1009.2 1008.9
12 16.06 С 1 18 км 9/1 420 м
[Cu Sc Ac lent Cs]
+28.6 +24.2 77 +40 +40 очень
душно
1010.8 1010.5 +28.7
15 16.06 ЮВ 5 18 км 9/1 420 м
[Cu Sc Ac lent Cs]
+25.8 +23.4 87 +35 +35 очень
душно
1011.6 1011.3
18 16.06 ЮВ 2 18 км 9/1 420 м
[Cu Sc Ac lent Cs]
+25.8 +24.0 90 +36 +36 очень
душно
1009.4 1009.1
21 16.06 В 2 18 км 9/1 420 м
[Cu Sc Ac lent Cs]
+25.2 +22.9 87 +33 +33 очень
душно
1008.3 1008.0
00 17.06 ЮВ 2 28 км 9/1 450 м
[Cu Sc Ac lent Cs]
+28.1 +23.3 75 +38 +40 очень
душно
1010.7 1010.4 +26.1 13
03 17.06 ЮЗ 4 28 км 9/1 420 м
[Cu Sc Ac lent Cs]
+31.9 +25.5 69 +46 +53 опасность
перегрева
1011.0 1010.7
06 17.06 З 7 28 км 9/3 420 м
[Cu Sc Ac trans Ci sp]
+31.8 +26.7 74 +49 +51 опасность
перегрева
1009.1 1008.8
09 17.06 З 4 25 км 9/4 420 м
[Cb cap Ac lent Cs]
+30.4 +26.3 79 +46 +47 опасность
перегрева
1008.9 1008.6
12 17.06 В 4 7000 м слаб. дождь {гроза} 10/6 1500 м
[Cb cap Ac lent Cs]
+25.9 +24.3 91 +36 +36 очень
душно
1010.2 1009.9 +26.7 0.8
15 17.06 В 3 18 км {дождь} 9/3 450 м
[Cu Sc Ac lent Cs]
+26.0 +23.5 86 +35 +35 очень
душно
1011.4 1011.1
18 17.06 В 2 18 км зарница {дождь} 9/5 420 м
[Cb cap Ac lent Cs]
+25.3 +23.6 90 +34 +34 очень
душно
1010.8 1010.5 0.0
21 17.06 В 2 18 км 9/1 420 м
[Cu Sc Ac lent Cs]
+24.8 +23.3 91 +33 +33 очень
душно
1010.0 1009.7
00 18.06 штиль 0 26 км {гроза} 9/4 50 м
[Cu Sc Ac lent Cs]
+28.3 +24.0 78 +39 +41 очень
душно
1012.0 1011.7 +25.4 0.8
03 18.06 СЗ 2 28 км 9/1 450 м
[Cu Sc Ac lent Ci sp]
+32.0 +26.6 73 +49 +58 опасность
перегрева
1010.6 1010.3
06 18.06 СЗ 3 28 км 9/1 420 м
[Cb cap Ac lent Ci sp]
+33.4 +27.1 70 +52 +59 опасность
перегрева
1008.7 1008.4
09 18.06 СЗ 1 16 км осадки на расстоянии 9/3 420 м
[Cu Sc Ac lent Cs]
+30.4 +25.7 76 +45 +46 опасность
перегрева
1008.5 1008.2
12 18.06 ЮВ 1 18 км в посл. час дождь 9/4 420 м
[Cu Sc Ac lent Cs]
+27.2 +24.7 86 +39 +39 очень
душно
1009.9 1009.6 +28.1 0.2
15 18.06 В 3 18 км 9/3 420 м
[Cu Sc Ac lent Cs]
+26.2 +23.8 87 +36 +36 очень
душно
1010.7 1010.4
18 18.06 В 3 18 км 9/1 420 м
[Cu Sc Ac lent Cs]
+25.6 +23.3 87 +34 +34 очень
душно
1008.6 1008.3
21 18.06 В 3 18 км 9/1 420 м
[Cu Sc Ac lent Cs]
+25.0 +22.6 87 +33 +33 очень
душно
1008.8 1008.5
00 19.06 ЮВ 2 28 км 8/3 450 м
[Cb cap Ac trans Ci sp]
+28.3 +23.1 73 +38 +40 очень
душно
1010.4 1010.1 +26.3
03 19.06 ЮЗ 5 25 км 8/3 420 м
[Cu Sc Ac trans Ci sp]
+30.4 +25.8 76 +45 +49 опасность
перегрева
1009.8 1009.5
06 19.06 З 4 25 км 8/3 420 м
[Cb cap Ac lent Ci sp]
+32.1 +25.2 67 +46 +51 опасность
перегрева
1007.8 1007.5

 

Местоположение метеостанции Кота-Кинабалу (Малайзия): широта 5.93 долгота 116.05 высота над уровнем моря 3 м.

В архиве по умолчанию представлена погода в Кота-Кинабалу за последнюю неделю. Архивные данные за месяц целиком и за предыдущие месяцы, начиная с января 2011 года, Вы можете получить, выбрав интересующий диапазон дат из раскрывающегося списка и нажав кнопку "Ввод!".


*Определитесь, кто Вы:
робот инопланетянин человек

Внимание! Время в таблицах - всемирное. Для получения местного времени необходимо прибавить поправку, которая равна 8 ч.

Смотрите также архив погоды в соседних городах и на ближайших метеорологических станциях:

Погода в Лабуане (Малайзия) (113 км)
Погода в Бруней аэропорту (Бруней) (167 км)
Погода в Сандакане (Малайзия) (222 км)
Погода в Лонгбаване (Индонезия) (248 км)
Погода в Тавау (Малайзия) (274 км)
Погода в Мири (Малайзия) (290 км)
Погода в Таракане (Индонезия) (334 км)
Погода в Танджунгселоре (Индонезия) (371 км)
Погода в Танджунгредепе (Индонезия) (451 км)
Погода в Бинталу (Малайзия) (452 км)

Пояснения к столбцам:

Ветер - указаны скорость ветра в м/с - средняя за 10 мин, порывы в срок и между сроками (в фигурных скобках) и направление, откуда дует ветер: С - северный, СВ - северо-восточный, В - восточный, ЮВ - юго-восточный, Ю - южный, ЮЗ - юго-западный, З - западный, СЗ - северо-западный.
Видимость - горизонтальная дальность видимости в метрах или километрах. При видимости от 1 до 10 км при отсутствии осадков обычно наблюдается дымка, при ухудшении видимости до 1 км и менее - туман. В сухую погоду видимость может ухудшаться дымом, пылью или мглою.
Явления - указаны атмосферные явления, наблюдавшиеся в срок или в последний час перед сроком; фигурными скобками обозначены явления, наблюдавшиеся между сроками (за 1-3 часа до срока); квадратными скобками обозначены град или гололедные отложения с указанием их диаметра в мм.
Облачность - указаны через наклонную черту общая и нижняя облачность в баллах и высота нижней границы облаков в метрах; квадратными скобками обозначены формы облаков: Ci - перистые, Cs - перисто-слоистые, Cc - перисто-кучевые, Ac - высококучевые, As - высокослоистые, Sc - слоисто-кучевые, Ns - слоисто-дождевые, Cu - кучевые, Cb - кучево-дождевые. Подробнее классификацию облаков см. в Атласе облаков (PDF).
T - Температура воздуха - температура, измеренная на высоте 2 м над землей.
Td - Температура точки росы - температура, при понижении до которой содержащийся в воздухе водяной пар достигнет насыщения.
f - Относительная влажность воздуха - влажноcть воздуха, измеренная на высоте 2 м над землей.
Te - Эффективная температура - температура, которую ощущает одетый по сезону человек в тени. Характеристика душности погоды. При расчете учитывается влияние влажности воздуха и скорости ветра на теплоощущения человека.
Tes - Эффективная температура на солнце - температура, которую ощущает человек, с поправкой на солнечный нагрев. Характеристика знойности погоды. Зависит от высоты солнца над горизонтом, облачности и скорости ветра. Ночью, в пасмурную погоду, а также при ветре 12 м/с и более поправка равна нулю.
P - Атмосферное давление - приведенное к уровню моря атмосферное давление.
Po - Атмосферное давление - измеренное на уровне метеостанции атмосферное давление.
Tmin - Минимальная температура - минимум температуры воздуха на высоте 2 м над землей.
Tmax - Максимальная температура - максимум температуры воздуха на высоте 2 м над землей.
R - Количество осадков - Количество выпавших осадков за период времени, мм. При наведении курсора мыши на число - период времени, за который выпало указанное количество осадков.
R24 - Количество осадков - Количество выпавших осадков за 24 часа, мм.
S - Снежный покров - Высота снежного покрова, см. При наведении курсора мыши на число - состояние снежного покрова и степень покрытия местности в баллах.